Stations météo

réclame
Mon MeteoGroup
Luqa, Malte (16597): Température de l'air & dewpoint: 12.11.2017 00:00:00 - 18.11.2017 00:00:00 (CET)Luqa, Malte (16597): Vitesse du vent: 12.11.2017 00:00:00 - 18.11.2017 00:00:00 (CET)Luqa, Malte (16597): Direction du vent: 12.11.2017 00:00:00 - 18.11.2017 00:00:00 (CET)Luqa, Malte (16597): reduced air pressure: 12.11.2017 00:00:00 - 18.11.2017 00:00:00 (CET)Luqa, Malte (16597): visibility: 12.11.2017 00:00:00 - 18.11.2017 00:00:00 (CET)
Date & Time tt [°C] td [°C] ff [km/h] ff [knt] dd ppp [hPa] vv [km]
18.11.2017 00:00:00 15,0 12,0 16 9 NNW - 10
17.11.2017 23:00:00 14,0 12,0 15 8 NNW - 10
17.11.2017 22:00:00 16,0 12,0 13 7 NW - 10
17.11.2017 21:00:00 15,0 12,0 11 6 WNW - 10
17.11.2017 20:00:00 14,0 13,0 2 1 - - 10
17.11.2017 19:00:00 14,7 12,6 9 5 WNW 1010,4 10
17.11.2017 18:00:00 15,0 12,0 13 7 NW - 10
17.11.2017 17:00:00 15,0 13,0 15 8 NW - 9
17.11.2017 16:00:00 16,0 12,0 18 10 WNW - 8
17.11.2017 15:00:00 17,0 12,0 26 14 NW - 10
17.11.2017 14:00:00 17,0 12,0 26 14 WNW - 10
17.11.2017 13:00:00 17,9 11,1 29 16 WNW 1011,7 10
17.11.2017 12:00:00 18,0 11,0 29 16 NW - 10
17.11.2017 11:00:00 18,0 12,0 24 13 NW - 10
17.11.2017 10:00:00 17,0 12,0 18 10 NNW - 10
17.11.2017 09:00:00 15,0 13,0 13 7 NW - 10
17.11.2017 08:00:00 14,0 13,0 15 8 NNW - 10
17.11.2017 07:00:00 14,4 11,6 18 10 WNW 1012,4 10
17.11.2017 06:00:00 14,0 12,0 15 8 WNW - 9
17.11.2017 05:00:00 15,0 11,0 16 9 NNW - 10
17.11.2017 04:00:00 15,0 11,0 18 10 NW - 10
17.11.2017 03:00:00 15,0 11,0 21 11 NNW - 10
17.11.2017 02:00:00 15,0 10,0 21 11 NW - 10
17.11.2017 01:00:00 14,5 10,0 18 10 NW 1012,2 10
17.11.2017 00:00:00 14,0 10,0 13 7 WNW - 10
16.11.2017 23:00:00 15,0 9,0 15 8 NW - 10
16.11.2017 22:00:00 15,0 10,0 15 8 NW - 10
16.11.2017 21:00:00 15,0 10,0 15 8 NW - 10
16.11.2017 20:00:00 14,0 10,0 15 8 WNW - 10
16.11.2017 19:00:00 14,6 10,0 13 7 WNW 1012,3 10
16.11.2017 18:00:00 15,0 10,0 22 12 NW - 10
16.11.2017 17:00:00 15,0 11,0 21 11 NW - 8
16.11.2017 16:00:00 17,0 9,0 21 11 NW - 10
16.11.2017 15:00:00 17,0 9,0 22 12 NW - 10
16.11.2017 14:00:00 18,0 10,0 26 14 NW - 10
16.11.2017 13:00:00 17,9 9,3 26 14 NW 1010,5 10
16.11.2017 12:00:00 17,0 11,0 29 16 NNW - 10
16.11.2017 11:00:00 17,0 10,0 26 14 N - 10
16.11.2017 10:00:00 16,0 10,0 24 13 N - 10
16.11.2017 09:00:00 15,0 11,0 22 12 N - 10
16.11.2017 08:00:00 13,0 12,0 21 11 NW - 8
16.11.2017 07:00:00 14,0 12,2 9 5 N 1007,5 10
16.11.2017 06:00:00 14,0 13,0 15 8 ENE - 10
16.11.2017 05:00:00 14,0 13,0 13 7 ESE - 10
16.11.2017 04:00:00 14,0 12,0 22 12 SE - 9
16.11.2017 03:00:00 13,0 12,0 18 10 SSE - 8
16.11.2017 02:00:00 13,0 12,0 16 9 SE - 7
16.11.2017 01:00:00 13,3 11,6 8 4 S 1007,9 9
16.11.2017 00:00:00 14,0 12,0 11 6 SSW - 10
15.11.2017 23:00:00 14,0 10,0 8 4 S - 10
15.11.2017 22:00:00 14,0 9,0 13 7 SW - 10
15.11.2017 21:00:00 14,0 7,0 8 4 SW - 10
15.11.2017 20:00:00 14,0 7,0 8 4 SW - 10
15.11.2017 19:00:00 14,3 7,3 11 6 WSW 1009,9 10
15.11.2017 18:00:00 15,0 7,0 15 8 WSW - 10
15.11.2017 17:00:00 15,0 8,0 11 6 WSW - 10
15.11.2017 16:00:00 16,0 8,0 18 10 WSW - 10
15.11.2017 15:00:00 16,0 9,0 15 8 WSW - 10
15.11.2017 14:00:00 17,0 9,0 15 8 WSW - 10
15.11.2017 13:00:00 17,0 8,9 15 8 WSW 1010,2 10
15.11.2017 12:00:00 17,0 9,0 15 8 WSW - 10
15.11.2017 11:00:00 17,0 8,0 16 9 WSW - 10
15.11.2017 10:00:00 17,0 7,0 15 8 SW - 10
15.11.2017 09:00:00 16,0 9,0 13 7 WSW - 10
15.11.2017 08:00:00 15,0 9,0 4 2 - - 10
15.11.2017 07:00:00 12,7 9,0 11 6 W 1010,1 10
15.11.2017 06:00:00 13,0 9,0 11 6 W - 10
15.11.2017 05:00:00 12,0 8,0 11 6 WNW - 10
15.11.2017 04:00:00 12,0 8,0 5 3 WNW - 10
15.11.2017 03:00:00 13,0 9,0 15 8 WSW - 10
15.11.2017 02:00:00 13,0 8,0 13 7 W - 10
15.11.2017 01:00:00 12,1 8,8 13 7 WSW 1008,3 10
15.11.2017 00:00:00 11,0 9,0 13 7 S - 10
14.11.2017 23:00:00 10,0 8,0 9 5 S - 10
14.11.2017 22:00:00 11,0 9,0 9 5 W - 7
14.11.2017 21:00:00 11,0 8,0 8 4 WNW - 10
14.11.2017 20:00:00 10,0 8,0 13 7 NW - 10
14.11.2017 19:00:00 10,5 8,6 11 6 NW 1006,5 10
14.11.2017 18:00:00 11,0 9,0 13 7 WNW - 9
14.11.2017 17:00:00 12,0 8,0 11 6 NW - 7
14.11.2017 16:00:00 13,0 10,0 5 3 W - 5
14.11.2017 15:00:00 15,0 9,0 13 7 NW - 10
14.11.2017 14:00:00 14,0 9,0 18 10 WNW - 10
14.11.2017 13:00:00 12,1 10,2 13 7 NW 1005,4 10
14.11.2017 12:00:00 13,0 10,0 11 6 W - 10
14.11.2017 11:00:00 12,0 9,0 11 6 WSW - 10
14.11.2017 10:00:00 13,0 9,0 21 11 W - 8
14.11.2017 09:00:00 13,0 11,0 4 2 - - 10
14.11.2017 08:00:00 12,0 11,0 5 3 N - 10
14.11.2017 07:00:00 12,6 12,0 13 7 WNW 1004,5 6
14.11.2017 06:00:00 12,0 12,0 4 2 - - 10
14.11.2017 05:00:00 12,0 12,0 2 1 - - 10
14.11.2017 04:00:00 12,0 11,0 2 1 - - 9
14.11.2017 03:00:00 12,0 11,0 16 9 NNW - 10
14.11.2017 02:00:00 13,0 10,0 18 10 NNW - 10
14.11.2017 01:00:00 13,4 11,0 21 11 NNW 1005,5 10
14.11.2017 00:00:00 13,0 11,0 11 6 NW - 10
13.11.2017 23:00:00 14,0 10,0 18 10 NW - 10
13.11.2017 22:00:00 15,0 11,0 9 5 N - 10
13.11.2017 21:00:00 15,0 11,0 22 12 NNW - 10
13.11.2017 20:00:00 15,0 13,0 29 16 NNW - 10
13.11.2017 19:00:00 17,8 13,5 28 15 NW 1003,9 10
13.11.2017 18:00:00 18,0 13,0 24 13 W - 10
13.11.2017 17:00:00 19,0 13,0 29 16 WSW - 10
13.11.2017 16:00:00 19,0 14,0 29 16 W - 10
13.11.2017 15:00:00 19,0 13,0 26 14 W - 9
13.11.2017 14:00:00 20,0 13,0 31 17 W - 10
13.11.2017 13:00:00 21,1 13,0 29 16 W 1005,0 10
13.11.2017 12:00:00 20,0 12,0 29 16 W - 10
13.11.2017 11:00:00 20,0 14,0 34 18 W - 10
13.11.2017 10:00:00 18,9 14,8 28 15 WNW 1007,0 10
13.11.2017 09:00:00 20,0 14,0 26 14 WNW - 9
13.11.2017 08:00:00 18,0 12,0 18 10 NW - 10
13.11.2017 07:00:00 16,8 11,7 18 10 NW 1006,4 10
13.11.2017 06:00:00 17,0 11,0 18 10 NW - 10
13.11.2017 05:00:00 17,0 13,0 22 12 NNW - 10
13.11.2017 04:00:00 17,5 14,4 22 12 NNW 1006,4 10
13.11.2017 03:00:00 17,0 15,0 22 12 NNW - 10
13.11.2017 02:00:00 17,0 14,0 21 11 NNW - 10
13.11.2017 01:00:00 17,3 13,6 22 12 NNW 1007,9 10
13.11.2017 00:00:00 17,0 14,0 22 12 NNW - 10
12.11.2017 23:00:00 18,0 16,0 24 13 N - 10
12.11.2017 22:00:00 18,9 18,1 15 8 NNE 1008,2 8
12.11.2017 21:00:00 19,0 18,0 15 8 NNE - 8
12.11.2017 20:00:00 19,0 18,0 16 9 NNE - 10
12.11.2017 19:00:00 19,3 18,4 15 8 NE 1007,9 10
12.11.2017 18:00:00 20,0 18,0 18 10 NE - 8
12.11.2017 17:00:00 20,0 18,0 16 9 NE - 8
12.11.2017 16:00:00 20,6 17,8 21 11 ENE 1007,6 9
12.11.2017 15:00:00 21,0 18,0 22 12 ENE - 9
12.11.2017 14:00:00 21,0 18,0 24 13 ENE - 9
12.11.2017 13:00:00 21,9 17,7 22 12 ENE 1008,1 9
12.11.2017 12:00:00 22,0 18,0 24 13 ENE - 9
12.11.2017 11:00:00 22,0 18,0 24 13 E - 9
12.11.2017 10:00:00 21,1 18,3 24 13 ENE 1009,4 9
12.11.2017 09:00:00 21,0 18,0 24 13 E - 7
12.11.2017 08:00:00 20,0 18,0 22 12 E - 5
12.11.2017 07:00:00 19,4 17,9 22 12 E 1009,3 6
12.11.2017 06:00:00 19,0 18,0 22 12 ENE - 10
12.11.2017 05:00:00 20,0 18,0 22 12 ENE - 9
12.11.2017 04:00:00 19,5 17,8 22 12 ENE 1008,8 9
12.11.2017 03:00:00 19,0 18,0 15 8 ENE - 9
12.11.2017 02:00:00 19,0 18,0 11 6 E - 9
12.11.2017 01:00:00 19,0 18,5 11 6 E 1010,5 9
12.11.2017 00:00:00 19,0 18,0 8 4 ENE - 9

tt = Température de l'air
td = dewpoint
ff = Vitesse du vent
dd = Direction du vent
ppp = reduced air pressure
vv = visibility

stations d'obs. à proximité